Easton, MD

8:38 PM EDT on July 29, 2016 (GMT -0400)
Easton / Newnam

Weather History for KESN - November, 2012

Change the Weather History Date:

Sunday, November 4, 2012

  Actual Average Record
Temperature  
Mean Temperature 42 °F -  
Max Temperature 50 °F 63 °F 82 °F (1974)
Min Temperature 34 °F 45 °F 26 °F (1951)
Degree Days  
Heating Degree Days 23    
Moisture  
Dew Point 33 °F    
Average Humidity 74    
Maximum Humidity 97    
Minimum Humidity 54    
Precipitation  
Precipitation 0.00 in - - ()
Sea Level Pressure  
Sea Level Pressure 30.08 in    
Wind  
Wind Speed 5 mph (NNW)    
Max Wind Speed 12 mph    
Max Gust Speed 18 mph    
Visibility 10 miles    
Events      
Averages and records for this station are not official NWS values.
T = Trace of Precipitation, MM = Missing Value Source: NWS Daily Summary

Daily Weather History Graph

Daily Weather History Graph

Search for Another Location

Airport or City:

Trip Planner

Search our weather history database for the weather conditions in past years. The results will help you decide how hot, cold, wet, or windy it might be!

Date:

Astronomy

Nov. 04, 2012 Rise Set
Actual Time 6:35 AM EST 5:00 PM EST
Civil Twilight 6:07 AM EST 5:27 PM EST
Nautical Twilight 5:35 AM EST 5:59 PM EST
Astronomical Twilight 5:04 AM EST 6:30 PM EST
Moon 9:36 PM EST (11/4) 11:16 AM EST (11/4)
Length of Visible Light 11h 20m
Length of Day
10h 25m
Waning Gibbous, 72% of the Moon is Illuminated
Nov 4
Waning Gibbous
Nov 6
Last Quarter
Nov 13
New
Nov 20
First Quarter
Nov 28
Full

Hourly Weather History & Observations

Time (EST) Temp. Windchill Dew Point Humidity Pressure Visibility Wind Dir Wind Speed Gust Speed Precip Events Conditions
12:06 AM 45.0 °F 39.7 °F 34.7 °F 67% 30.09 in 10.0 mi NW 10.4 mph - N/A   Overcast
12:27 AM 45.1 °F 41.4 °F 33.6 °F 64% 30.09 in 10.0 mi NNW 6.9 mph 17.3 mph N/A   Overcast
12:49 AM 44.8 °F 39.0 °F 32.7 °F 63% 30.09 in 10.0 mi NNW 11.5 mph - N/A   Overcast
1:31 AM 43.7 °F 38.1 °F 31.3 °F 62% 30.10 in 10.0 mi NNW 10.4 mph - N/A   Scattered Clouds
1:53 AM 41.7 °F 37.3 °F 32.2 °F 69% 30.10 in 10.0 mi NNW 6.9 mph - N/A   Clear
1:14 AM 40.6 °F 37.5 °F 32.4 °F 72% 30.09 in 10.0 mi NNW 4.6 mph - N/A   Clear
1:35 AM 40.3 °F 38.2 °F 32.5 °F 74% 30.09 in 10.0 mi NW 3.5 mph - N/A   Scattered Clouds
1:56 AM 40.3 °F 38.2 °F 32.9 °F 75% 30.09 in 10.0 mi NW 3.5 mph - N/A   Scattered Clouds
2:18 AM 40.6 °F - 33.1 °F 74% 30.08 in 10.0 mi Calm Calm - N/A   Mostly Cloudy
2:39 AM 41.0 °F - 33.8 °F 76% 30.08 in 10.0 mi Calm Calm - N/A   Overcast
3:00 AM 40.3 °F 38.2 °F 33.6 °F 77% 30.08 in 10.0 mi NW 3.5 mph - N/A   Mostly Cloudy
3:22 AM 39.6 °F - 33.1 °F 78% 30.07 in 10.0 mi Calm Calm - N/A   Clear
3:43 AM 39.0 °F - 32.9 °F 79% 30.08 in 10.0 mi Calm Calm - N/A   Clear
4:04 AM 38.5 °F - 32.9 °F 80% 30.08 in 10.0 mi Calm Calm - N/A   Clear
4:26 AM 38.3 °F - 32.9 °F 81% 30.08 in 10.0 mi Calm Calm - N/A   Clear
4:47 AM 38.1 °F 35.7 °F 32.9 °F 81% 30.09 in 10.0 mi WNW 3.5 mph - N/A   Clear
5:08 AM 37.6 °F - 33.1 °F 84% 30.09 in 10.0 mi Calm Calm - N/A   Clear
5:50 AM 37.4 °F - 32.0 °F 81% 30.09 in 10.0 mi Calm Calm - N/A   Scattered Clouds
6:45 AM 37.4 °F 34.9 °F 33.8 °F 87% 30.09 in 10.0 mi NNW 3.5 mph - N/A   Scattered Clouds
7:50 AM 42.8 °F - 35.6 °F 76% 30.11 in 10.0 mi Calm Calm - N/A   Scattered Clouds
9:48 AM 46.4 °F 42.9 °F 32.0 °F 57% 30.11 in 10.0 mi NNW 6.9 mph - N/A   Mostly Cloudy
10:48 AM 50.0 °F - 35.6 °F 58% 30.09 in 10.0 mi WNW 9.2 mph - N/A   Mostly Cloudy
11:52 AM 48.2 °F - 32.0 °F 54% 30.07 in 10.0 mi NW 11.5 mph 18.4 mph N/A   Mostly Cloudy
12:51 PM 50.0 °F - 33.8 °F 54% 30.06 in 10.0 mi NW 11.5 mph 17.3 mph N/A   Scattered Clouds
1:51 PM 48.2 °F - 33.8 °F 58% 30.05 in 10.0 mi North 9.2 mph - N/A   Scattered Clouds
2:50 PM 48.2 °F - 33.8 °F 58% 30.04 in 10.0 mi North 5.8 mph - N/A   Scattered Clouds
3:50 PM 48.2 °F - 32.0 °F 54% 30.05 in 10.0 mi NNW 9.2 mph - N/A   Clear
4:50 PM 44.6 °F 42.2 °F 32.0 °F 61% 30.04 in 10.0 mi NNE 4.6 mph - N/A   Scattered Clouds
5:53 PM 41.0 °F 36.4 °F 32.0 °F 70% 30.06 in 10.0 mi NE 6.9 mph - N/A   Clear
6:53 PM 39.2 °F 35.0 °F 32.0 °F 75% 30.08 in 10.0 mi NNE 5.8 mph - N/A   Clear
7:50 PM 37.4 °F 34.9 °F 32.0 °F 81% 30.09 in 10.0 mi NE 3.5 mph - N/A   Clear
8:53 PM 35.6 °F - 32.0 °F 87% 30.09 in 10.0 mi Calm Calm - N/A   Clear
9:25 PM 35.1 °F - 33.4 °F 94% 30.09 in 10.0 mi Calm Calm - N/A   Clear
9:47 PM 35.1 °F - 33.4 °F 94% 30.09 in 10.0 mi Calm Calm - N/A   Clear
10:08 PM 34.7 °F - 33.6 °F 96% 30.08 in 10.0 mi Calm Calm - N/A   Clear
10:29 PM 34.0 °F - 33.1 °F 96% 30.08 in 10.0 mi Calm Calm - N/A   Clear
10:51 PM 34.0 °F - 33.3 °F 97% 30.08 in 10.0 mi Calm Calm - N/A   Clear